Find Starlink 30249

NORAD ID: 57618 Int'l Des: 2023-119 Owner: SPXS Country: US Constellation: starlink operational
LEOCIRCULAR

現在のビュー

3D地球を読み込み中...

About Starlink 30249

Starlink 30249 (NORAD 57618) is a starlink constellation satellite (v2 mini) launched Aug 11, 2023 by SPXS of US. It operates in LEO, CIRCULAR orbit with a mass of 730.00 kg.

次回通過

Passes for default location (London). Set your location on the main map for personalized predictions.

高度履歴

Loading altitude history...

軌道要素

1 57618U 23119S 26263.17659277 -.00001073 00000-0 -29466-4 0 9990
2 57618 43.0042 62.9689 0001692 268.4371 91.6287 15.27586353172830
Epoch: Sep 20, 2026 • Age: 74 hours

現在のステータス

高度 491.1 km
遠地点 / 近地点 N/A
速度 7.62 km/s
衛星直下点 -32.88°S, 86.47°W
打ち上げ日 Aug 11, 2023
運用期間 3.1 years
タイプ internet

技術仕様

分類 Payload
質量 730.00 kg
乾燥質量 700.00 kg
長さ 0.30 m
スパン 29.00 m
形状 ? Box + pan
製造者 SPXS
バスタイプ Starlink V2M
フェーズステータス In Orbit
所有者/国 SPXS/US

Most Searched